Погода в Апаране

Армения     40°35′27″N   44°21′27″E
В апреле 2022 года жителям России запретили посещать сайт meteo.paraplan.net по решению Генеральной прокуратуры. Аудитория сайта уменьшилась в 10 раз. Владельцы сайта не видят смысла в поддержке погодного сервера в таких условиях. Сайт будет закрыт в октябре.
темп.,
°C
ветер,
м/с
пор.,
м/с
влажн.,
%
обл.,
%
осадки,
мм/ч
давл.,
гПа
погр.,
м
30 сентября, пт
пт3001:00+9ссз22450 0.0 101823
04:00+8сз22510 0.0 101918
07:00+7ссз22590 0.0 102018
10:00+13вюв22401 0.0 10191006
13:00+17ююв333125 0.0 10182124
16:00+16ююз123279 0.0 10171985
19:00+11с11482 0.0 101911
22:00+8с33670 0.0 102237
1 октября, сб
сб101:00+8ссз23661 0.0 102334
04:00+7ссз22670 0.0 102323
07:00+6ссз22692 0.0 102419
10:00+12в11482 0.0 10221061
13:00+14юв124593 0.1 10211950
16:00+13ссв335091 0.1 1020957
19:00+10ссв347042 0.1 1022131
22:00+7ссз337410 0.1 102338
2 октября, вс
вс201:00+7с227537 0.0 102253
04:00+5ссз22792 0.0 102221
07:00+4сз12781 0.0 102213
10:00+11юв32551 0.0 1019838
13:00+14ююв434411 0.0 10161653
16:00+14ююв334184 0.0 10141297
19:00+9ююз12535 0.0 101515
22:00+7юз01579 0.0 101612
3 октября, пн
пн301:00+7ю2251100 0.0 101517
04:00+7ю2252100 0.0 101318
07:00+6ююз225597 0.0 101320
10:00+13ю453795 0.0 1012577
13:00+16ююз57245 0.0 10101891
16:00+16юз510239 0.0 10102122
19:00+10ююз22396 0.0 101218
22:00+9ююз22414 0.0 101422
4 октября, вт
вт401:00+9ююз23460 0.0 101425
04:00+8юз23410 0.0 101523
07:00+7ююз33435 0.0 101627
10:00+14ю59305 0.0 10161656
13:00+16ю58265 0.0 10162171
16:00+16ююз592670 0.0 10152417
19:00+12ююв233686 0.1 1018199
22:00+9сз146099 0.3 1022143